Weather History for Lugano, Switzerland

Change the Weather History Date:

Sunday, May 12, 2013

  Actual Average Record
Temperature  
Mean Temperature 62 °F -  
Max Temperature 73 °F 68 °F - ()
Min Temperature 50 °F 53 °F - ()
Degree Days  
Heating Degree Days 4    
Growing Degree Days 12 (Base 50)    
Moisture  
Dew Point 35 °F    
Average Humidity 36    
Maximum Humidity 76    
Minimum Humidity 12    
Precipitation  
Precipitation 0.00 in 0.25 in - ()
Sea Level Pressure  
Sea Level Pressure 29.89 in    
Wind  
Wind Speed 6 mph ()    
Max Wind Speed 16 mph    
Max Gust Speed -    
Visibility 6.2 miles    
Events      
T = Trace of Precipitation, MM = Missing Value Source: Averaged Metar Reports

Daily Weather History Graph

Daily Weather History Graph

Search for Another Location

Airport:

Trip Planner

Search our weather history database for the weather conditions in past years. The results will help you decide how hot, cold, wet, or windy it might be!

Date:

Astronomy

May. 12, 2013 Rise Set
Actual Time 5:55 AM CEST 8:46 PM CEST
Civil Twilight 5:21 AM CEST 9:21 PM CEST
Nautical Twilight 4:37 AM CEST 10:05 PM CEST
Astronomical Twilight 3:45 AM CEST 10:57 PM CEST
Moon 7:35 AM CEST (5/12) 11:02 PM CEST (5/12)
Length of Visible Light 15h 59m
Length of Day
14h 50m
Waxing Crescent, 5% of the Moon is Illuminated
May 12
Waxing Crescent
May 18
First Quarter
May 25
Full
May 31
Last Quarter
Jun 8
New

Hourly Weather History & Observations

Time (CEST) Temp. Dew Point Humidity Pressure Visibility Wind Dir Wind Speed Gust Speed Precip Events Conditions
12:00 AM 63 °F 34 °F 22% 29.90 in - North 9.2 mph - -  
12:20 AM 59.0 °F 35.6 °F 42% 29.92 in - Variable 3.5 mph - N/A   Clear
12:50 AM 57.2 °F 37.4 °F 48% 29.92 in - Variable 2.3 mph - N/A   Clear
1:00 AM 62 °F 33 °F 23% 29.90 in - North 10.4 mph - -  
1:20 AM 57.2 °F 35.6 °F 44% 29.92 in - Variable 2.3 mph - N/A   Clear
1:50 AM 59.0 °F 35.6 °F 42% 29.92 in - Variable 4.6 mph - N/A   Clear
2:20 AM 57.2 °F 33.8 °F 41% 29.92 in - Variable 4.6 mph - N/A   Clear
2:50 AM 57.2 °F 33.8 °F 41% 29.92 in - Variable 2.3 mph - N/A   Clear
3:00 AM 61 °F 32 °F 22% 29.91 in - North 6.9 mph - -  
3:20 AM 53.6 °F 41.0 °F 62% 29.92 in - Variable 3.5 mph - N/A   Clear
3:50 AM 51.8 °F 41.0 °F 67% 29.92 in - Variable 2.3 mph - N/A   Clear
4:00 AM 59 °F 33 °F 26% 29.92 in - North 8.1 mph - -  
4:20 AM 50.0 °F 41.0 °F 71% 29.92 in - Variable 2.3 mph - N/A   Clear
4:50 AM 50.0 °F 42.8 °F 76% 29.92 in - Variable 2.3 mph - N/A   Clear
5:20 AM 50.0 °F 42.8 °F 76% 29.92 in - Variable 2.3 mph - N/A   Clear
5:50 AM 51.8 °F 41.0 °F 67% 29.92 in - Variable 3.5 mph - N/A   Clear
6:00 AM 60 °F 30 °F 20% 29.90 in - North 11.5 mph - -  
6:20 AM 50.0 °F 41.0 °F 71% 29.89 in - Variable 3.5 mph - N/A   Clear
6:50 AM 50.0 °F 39.2 °F 66% 29.89 in - South 3.5 mph - N/A   Clear
7:00 AM 59 °F 30 °F 21% 29.89 in - NNW 8.1 mph - -  
7:20 AM 50.0 °F 41.0 °F 71% 29.89 in - Variable 3.5 mph - N/A   Clear
7:50 AM 51.8 °F 41.0 °F 67% 29.89 in - SSE 3.5 mph - N/A   Clear
8:20 AM 59.0 °F 35.6 °F 42% 29.89 in - Variable 4.6 mph - N/A   Clear
8:50 AM 59.0 °F 42.8 °F 55% 29.89 in - SSE 5.8 mph - N/A   Clear
9:00 AM 60 °F 38 °F 33% 29.89 in - SSE 2.3 mph - -  
9:20 AM 64.4 °F 35.6 °F 34% 29.89 in - North 10.4 mph - N/A   Clear
9:50 AM 66.2 °F 35.6 °F 32% 29.89 in - North 10.4 mph - N/A   Clear
10:00 AM 62 °F 39 °F 30% 29.88 in - SE 4.6 mph - -  
10:20 AM 66.2 °F 33.8 °F 30% 29.89 in - North 12.7 mph - N/A   Clear
10:50 AM 68.0 °F 35.6 °F 30% 29.89 in - North 12.7 mph - N/A   Clear
11:20 AM 69.8 °F 35.6 °F 28% 29.86 in - North 11.5 mph - N/A   Clear
11:50 AM 66.2 °F 33.8 °F 30% 29.86 in - North 12.7 mph - N/A   Clear
12:00 PM 64 °F 42 °F 34% 29.86 in - ESE 4.6 mph - -  
12:20 PM 68.0 °F 33.8 °F 28% 29.86 in - North 11.5 mph - N/A   Clear
12:50 PM 69.8 °F 35.6 °F 28% 29.86 in 6.2 mi North 9.2 mph - N/A   Partly Cloudy
1:00 PM 67 °F 41 °F 27% 29.84 in - SE 3.5 mph - -  
1:20 PM 71.6 °F 35.6 °F 27% 29.86 in 6.2 mi Variable 5.8 mph - N/A   Partly Cloudy
1:50 PM 73.4 °F 32.0 °F 22% 29.83 in 6.2 mi SE 3.5 mph - N/A   Partly Cloudy
2:20 PM 73.4 °F 37.4 °F 27% 29.83 in 6.2 mi SSW 5.8 mph - N/A   Partly Cloudy
2:50 PM 69.8 °F 32.0 °F 25% 29.83 in 6.2 mi West 5.8 mph - N/A   Scattered Clouds
3:00 PM 69 °F 33 °F 16% 29.82 in - West 8.1 mph - -  
3:20 PM 68.0 °F 33.8 °F 28% 29.83 in 6.2 mi NNE 4.6 mph - N/A   Scattered Clouds
3:50 PM 69.8 °F 37.4 °F 31% 29.83 in 6.2 mi NNE 5.8 mph - N/A   Scattered Clouds
4:00 PM 70 °F 36 °F 18% 29.81 in - North 9.2 mph - -  
4:20 PM 68.0 °F 37.4 °F 33% 29.83 in 6.2 mi North 11.5 mph - N/A   Partly Cloudy
4:50 PM 69.8 °F 39.2 °F 33% 29.83 in 6.2 mi North 12.7 mph - N/A   Partly Cloudy
5:20 PM 69.8 °F 37.4 °F 31% 29.83 in 6.2 mi NNE 13.8 mph - N/A   Scattered Clouds
5:50 PM 69.8 °F 33.8 °F 27% 29.83 in 6.2 mi NNE 16.1 mph - N/A   Partly Cloudy
6:00 PM 70 °F 35 °F 17% 29.82 in - North 11.5 mph - -  
6:20 PM 69.8 °F 33.8 °F 27% 29.83 in 6.2 mi NNE 11.5 mph - N/A   Partly Cloudy
6:50 PM 68.0 °F 33.8 °F 28% 29.83 in 6.2 mi North 13.8 mph - N/A   Partly Cloudy
7:00 PM 69 °F 29 °F 13% 29.84 in - North 12.7 mph - -  
7:20 PM 68.0 °F 30.2 °F 24% 29.86 in 6.2 mi North 13.8 mph - N/A   Partly Cloudy
7:50 PM 64.4 °F 28.4 °F 26% 29.89 in - North 15.0 mph - N/A   Clear
8:20 PM 62.6 °F 28.4 °F 27% 29.89 in - North 11.5 mph - N/A   Clear
8:50 PM 60.8 °F 26.6 °F 27% 29.92 in - North 10.4 mph - N/A   Clear
9:00 PM 63 °F 24 °F 13% 29.93 in - NNE 13.8 mph - -  
9:20 PM 60.8 °F 24.8 °F 25% 29.95 in - North 10.4 mph - N/A   Clear
9:50 PM 55.4 °F 32.0 °F 41% 29.95 in - North 6.9 mph - N/A   Clear
10:00 PM 62 °F 23 °F 12% 29.97 in - NE 9.2 mph - -  
10:20 PM 55.4 °F 30.2 °F 38% 29.98 in - North 5.8 mph - N/A   Clear
10:50 PM 55.4 °F 30.2 °F 38% 29.98 in - NNE 4.6 mph - N/A   Clear
11:20 PM 53.6 °F 30.2 °F 41% 30.01 in - NNE 4.6 mph - N/A   Clear
11:50 PM 55.4 °F 28.4 °F 36% 30.01 in - NNW 6.9 mph - N/A   Clear